[[{"header":{"parameterUnit":"m.s-1","parameterCategory":1,"la1":30.2992,"la2":30.254,"lo1":-89.0895,"lo2":-89.0443,"dy":0.0025,"dx":0.0025,"nx":19,"ny":19,"refTime":"2026-03-25T21:00:00:Z","depth":0,"parameterNumber":2,"parameterNumberName":"U-component_of_WINDS"},"data":[0,0,0,-0.4508,-0.4508,-0.4502,-0.4502,-0.4495,-0.4495,0,0,0,0,0,0,0,0,0,0,0,-0.4511,-0.4511,-0.4508,-0.4508,-0.4502,-0.4502,-0.4495,-0.4495,0,0,0,0,0,0,0,0,0,0,0,-0.4511,-0.4511,-0.4511,-0.4508,-0.4502,-0.4502,-0.4495,-0.4499,0,0,0,0,0,0,0,0,0,0,-0.4505,-0.4509,-0.4511,-0.4511,-0.4508,-0.4502,-0.4502,-0.4499,-0.4499,-0.4498,0,-0.4498,0,-0.4496,-0.4494,-0.4494,0,0,0,-0.4508,-0.4509,-0.4507,-0.4511,-0.4508,-0.4502,-0.4505,-0.4499,-0.4499,-0.4498,-0.4498,-0.4498,-0.4496,-0.4494,-0.4494,-0.4494,-0.4494,0,0,-0.4508,-0.4511,-0.4507,-0.4506,-0.4508,-0.4505,-0.4504,-0.4499,-0.4499,-0.4498,-0.4498,-0.4496,-0.4494,-0.4494,-0.4494,-0.4494,0,0,0,-0.4509,-0.4511,-0.4508,-0.4507,-0.4506,-0.4505,-0.4504,-0.45,-0.4498,-0.4498,-0.4496,-0.4494,-0.4494,-0.4494,-0.4494,-0.4499,0,0,0,-0.451,-0.4512,-0.4509,-0.451,-0.4506,-0.4503,-0.4505,-0.4499,-0.4498,-0.4496,-0.4494,-0.4494,-0.4494,-0.4494,-0.4498,-0.45,0,0,0,-0.4511,-0.4512,-0.4512,-0.451,-0.4508,-0.4503,-0.4501,-0.4499,-0.4497,-0.4494,-0.4494,-0.4494,-0.4494,-0.4498,-0.45,-0.4501,0,0,0,-0.4514,-0.4516,-0.4512,-0.4513,-0.4508,-0.4505,-0.4501,-0.4499,-0.4497,-0.4494,-0.4494,-0.4494,-0.4498,-0.45,-0.4501,-0.4503,-0.4504,0,0,-0.4518,-0.4516,-0.4517,-0.4513,-0.4512,-0.4506,-0.4506,-0.4501,-0.4498,-0.4495,-0.4495,-0.4498,-0.45,-0.4501,-0.4508,-0.4509,0,0,0,-0.4519,-0.4519,-0.4518,-0.4516,-0.4513,-0.451,-0.4505,-0.4503,-0.4501,-0.4497,-0.4499,-0.45,-0.45,-0.4501,-0.4502,-0.4502,-0.4494,-0.4494,-0.4494,-0.4528,-0.4524,-0.4524,-0.452,-0.4518,-0.4513,-0.4511,-0.4508,-0.4504,-0.4505,-0.4504,-0.4509,-0.451,-0.451,-0.4511,-0.4505,-0.4505,-0.4505,-0.4505,-0.4533,-0.4533,-0.4528,-0.4527,-0.4523,-0.4521,-0.4516,-0.4514,-0.4512,-0.4509,-0.4509,-0.4507,-0.4511,-0.4512,-0.4505,-0.4505,-0.4505,-0.4505,-0.4505,-0.4539,-0.4538,-0.4536,-0.4533,-0.4531,-0.4526,-0.4525,-0.4521,-0.4517,-0.4517,-0.4516,-0.4516,-0.4516,-0.4517,-0.4517,-0.4517,-0.4517,-0.4517,-0.4517,-0.4546,-0.4544,-0.4543,-0.4539,-0.4537,-0.4535,-0.4529,-0.4527,-0.4524,-0.4521,-0.4521,-0.4518,-0.4513,-0.4511,-0.4517,-0.4517,-0.4517,-0.4517,-0.4517,-0.4554,-0.4551,-0.455,-0.4549,-0.4544,-0.4542,-0.4537,-0.4533,-0.4531,-0.453,-0.4527,-0.4523,-0.4521,-0.4521,-0.452,-0.4527,-0.4527,-0.4527,-0.4527,-0.4559,-0.4558,-0.4556,-0.4553,-0.455,-0.4545,-0.4544,-0.454,-0.4535,-0.4533,-0.4531,-0.4529,-0.4529,-0.4527,-0.4527,-0.4526,-0.4535,-0.4535,-0.4535,-0.4564,-0.4562,-0.4562,-0.4557,-0.4552,-0.4549,-0.4547,-0.4545,-0.4538,-0.4535,-0.4532,-0.4531,-0.4528,-0.4528,-0.4525,-0.4524,-0.4522,0,0]},{"header":{"parameterUnit":"m.s-1","parameterCategory":1,"la1":30.2992,"la2":30.254,"lo1":-89.0895,"lo2":-89.0443,"dy":0.0025,"dx":0.0025,"nx":19,"ny":19,"refTime":"2026-03-25T21:00:00:Z","depth":0,"parameterNumber":3,"parameterNumberName":"V-component_of_WINDS"},"data":[0,0,0,3.3911,3.3914,3.4061,3.4062,3.4249,3.4251,0,0,0,0,0,0,0,0,0,0,0,3.3867,3.3869,3.3911,3.3914,3.4061,3.4062,3.4249,3.4251,0,0,0,0,0,0,0,0,0,0,0,3.3867,3.3868,3.387,3.3915,3.4061,3.4062,3.4248,3.4138,0,0,0,0,0,0,0,0,0,0,3.3995,3.3955,3.3868,3.387,3.3916,3.4061,3.4062,3.4132,3.4145,3.4182,0,3.4216,0,3.4237,3.4263,3.4264,0,0,0,3.3914,3.3945,3.3984,3.387,3.3917,3.4061,3.3995,3.4139,3.4153,3.4199,3.4219,3.4226,3.424,3.4265,3.4266,3.4487,3.4488,0,0,3.3906,3.3894,3.3975,3.3993,3.3971,3.399,3.3999,3.4148,3.4169,3.422,3.4231,3.4243,3.4266,3.4267,3.4486,3.4487,0,0,0,3.3883,3.3888,3.3924,3.3986,3.4012,3.3994,3.4005,3.4162,3.4175,3.4233,3.4245,3.4267,3.4269,3.4485,3.4486,3.4528,0,0,0,3.3878,3.3874,3.3921,3.3914,3.401,3.4089,3.4016,3.4165,3.4182,3.4244,3.4267,3.4271,3.4484,3.4486,3.4524,3.4549,0,0,0,3.3858,3.3872,3.3893,3.3913,3.3976,3.4087,3.4109,3.4169,3.419,3.4264,3.4272,3.4483,3.4485,3.4521,3.4544,3.4605,0,0,0,3.3832,3.3926,3.3894,3.4004,3.3975,3.4111,3.4108,3.4209,3.4278,3.4268,3.4484,3.4486,3.452,3.4541,3.4602,3.4655,3.4676,0,0,3.3944,3.3939,3.4005,3.398,3.412,3.409,3.4235,3.4309,3.4326,3.4432,3.4438,3.4525,3.4544,3.4604,3.4796,3.4812,0,0,0,3.4037,3.4084,3.4123,3.4189,3.4248,3.4302,3.4355,3.4382,3.4473,3.4379,3.4563,3.4575,3.4611,3.4637,3.4652,3.4684,3.4498,3.4497,3.4497,3.4177,3.4196,3.4307,3.4344,3.4407,3.4462,3.4515,3.4562,3.456,3.4604,3.4636,3.475,3.478,3.4791,3.4824,3.4665,3.4665,3.4665,3.4665,3.4344,3.4415,3.4413,3.452,3.4539,3.4628,3.4685,3.4681,3.4768,3.4727,3.476,3.4714,3.4808,3.4839,3.4668,3.4668,3.4667,3.4667,3.4667,3.444,3.4477,3.4509,3.4607,3.468,3.4714,3.4797,3.4811,3.4825,3.4857,3.4893,3.4893,3.4895,3.4873,3.4874,3.4874,3.4874,3.4875,3.4875,3.4526,3.4562,3.4631,3.4703,3.4748,3.4808,3.4865,3.4909,3.4961,3.4965,3.4965,3.4961,3.4814,3.4777,3.4881,3.488,3.4879,3.4879,3.4878,3.469,3.4656,3.4763,3.4808,3.4894,3.4967,3.4983,3.5073,3.5111,3.5152,3.5141,3.5029,3.5025,3.5014,3.4984,3.5136,3.5136,3.5136,3.5136,3.4772,3.4771,3.4885,3.4956,3.5027,3.5054,3.5175,3.522,3.5261,3.5286,3.5266,3.5227,3.5215,3.5218,3.5202,3.5175,3.5371,3.5371,3.5372,3.4875,3.4882,3.4983,3.5023,3.5092,3.5151,3.5266,3.5347,3.5386,3.5381,3.5306,3.5296,3.5233,3.5212,3.5206,3.5181,3.5131,0,0]}]]